This is the latest recevied weather packets stored in our database for station/object KO6LQJ. If no packets are shown the sender has not sent any weather packets the latest 10 day(s).
| Time | Temp. | Humidity | Pressure | Rain* | Wind** | Luminosity | Snow |
|---|---|---|---|---|---|---|---|
| 1777856273 | 17.78° C | 58% | 1014.7 hPa | 0 mm | - | 52 W/m² | - |
| 1777855970 | 17.78° C | 57% | 1014.7 hPa | 0 mm | - | 73 W/m² | - |
| 1777855667 | 17.78° C | 57% | 1014.6 hPa | 0 mm | - | 56 W/m² | - |
| 1777855364 | 17.78° C | 57% | 1014.6 hPa | 0 mm | - | 78 W/m² | - |
| 1777855061 | 18.33° C | 56% | 1014.5 hPa | 0 mm | - | 75 W/m² | - |
| 1777854758 | 18.33° C | 58% | 1014.5 hPa | 0 mm | - | 92 W/m² | - |
| 1777854454 | 18.33° C | 56% | 1014.6 hPa | 0 mm | - | 100 W/m² | - |
| 1777854151 | 18.33° C | 56% | 1014.4 hPa | 0 mm | - | 113 W/m² | - |
| 1777853849 | 18.33° C | 56% | 1014.7 hPa | 0 mm | - | 108 W/m² | - |
| 1777853546 | 18.33° C | 56% | 1014.4 hPa | 0 mm | - | 106 W/m² | - |
| 1777853242 | 18.33° C | 57% | 1014.6 hPa | 0 mm | - | 115 W/m² | - |
| 1777852939 | 17.78° C | 57% | 1014.3 hPa | 0 mm | - | 127 W/m² | - |
| 1777852638 | 17.78° C | 58% | 1014.5 hPa | 0 mm | - | 97 W/m² | - |
| 1777852335 | 17.78° C | 57% | 1014.7 hPa | 0 mm | - | 98 W/m² | - |
| 1777852032 | 17.78° C | 57% | 1014.6 hPa | 0 mm | - | 88 W/m² | - |
| 1777851730 | 17.78° C | 58% | 1014.6 hPa | 0 mm | - | 118 W/m² | - |
| 1777851427 | 17.78° C | 58% | 1014.5 hPa | 0 mm | - | 98 W/m² | - |
| 1777851122 | 17.78° C | 58% | 1014.5 hPa | 0 mm | - | 104 W/m² | - |
| 1777850820 | 17.78° C | 59% | 1014.6 hPa | 0 mm | - | 111 W/m² | - |
| 1777850517 | 17.78° C | 57% | 1014.6 hPa | 0 mm | - | 96 W/m² | - |
| 1777850215 | 18.33° C | 57% | 1014.7 hPa | 0 mm | - | 128 W/m² | - |
| 1777849911 | 18.33° C | 56% | 1014.9 hPa | 0 mm | - | 154 W/m² | - |
| 1777849608 | 18.33° C | 57% | 1014.7 hPa | 0 mm | - | 177 W/m² | - |
| 1777849305 | 17.78° C | 58% | 1014.7 hPa | 0 mm | - | 158 W/m² | - |
| 1777849002 | 17.78° C | 58% | 1014.8 hPa | 0 mm | - | 136 W/m² | - |
* Rain latest hour (hover to see other rain measurements)
** Current wind speed in m/s (hover to see current wind gust speed)